FDX5034 VIDP-VABB

Flight info

Callsign FDX5034
Flight time 1h 32m
Altitude 38000
Route DUDUM6E DUDUM Q2 AKTIV IGBAN2A
Aircraft MD11/H-SDE1E2E3FGHIJ2J3J4J5M1RWXY/LB1D1

Departure

Time 2026-05-05 01:22
Airport Indira Gandhi International Airport (VIDP)

Arrival

Time 2026-05-05 02:54
Airport Chhatrapati Shivaji Maharaj International Airport (VABB)
Time Latitude Longitude Altitude Speed Heading
2026-05-05 01:00 28.55832 77.09897 785 ft 0 kts 195°
2026-05-05 01:11 28.55834 77.09898 785 ft 1 kts 195°
2026-05-05 01:12 28.55849 77.09901 785 ft 2 kts 195°
2026-05-05 01:12 28.55863 77.09906 785 ft 2 kts 197°
2026-05-05 01:12 28.55877 77.09913 785 ft 2 kts 213°
2026-05-05 01:12 28.55889 77.09924 785 ft 2 kts 226°
2026-05-05 01:13 28.55898 77.09937 785 ft 2 kts 240°
2026-05-05 01:13 28.55904 77.09952 785 ft 2 kts 254°
2026-05-05 01:13 28.55906 77.09969 785 ft 2 kts 268°
2026-05-05 01:13 28.55905 77.09985 785 ft 2 kts 282°
2026-05-05 01:14 28.55903 77.09992 785 ft 1 kts 286°
2026-05-05 01:14 28.55903 77.09993 785 ft 0 kts 286°
2026-05-05 01:15 28.55904 77.09988 785 ft 2 kts 286°
2026-05-05 01:15 28.55916 77.09941 785 ft 9 kts 285°
2026-05-05 01:15 28.55940 77.09839 785 ft 16 kts 284°
2026-05-05 01:16 28.55982 77.09693 785 ft 21 kts 315°
2026-05-05 01:16 28.56138 77.09701 785 ft 25 kts 14°
2026-05-05 01:16 28.56253 77.09679 785 ft 16 kts 296°
2026-05-05 01:16 28.56289 77.09541 785 ft 20 kts 286°
2026-05-05 01:17 28.56332 77.09361 785 ft 25 kts 282°
2026-05-05 01:17 28.56377 77.09159 785 ft 28 kts 285°
2026-05-05 01:17 28.56425 77.08946 785 ft 28 kts 284°
2026-05-05 01:17 28.56473 77.08745 785 ft 25 kts 283°
2026-05-05 01:18 28.56518 77.08542 785 ft 25 kts 284°
2026-05-05 01:18 28.56578 77.08376 785 ft 18 kts 328°
2026-05-05 01:18 28.56668 77.08456 785 ft 17 kts 63°
2026-05-05 01:18 28.56713 77.08513 785 ft 5 kts 45°
2026-05-05 01:19 28.56713 77.08534 785 ft 3 kts 102°
2026-05-05 01:19 28.56708 77.08557 785 ft 0 kts 104°
2026-05-05 01:19 28.56707 77.08558 785 ft 0 kts 104°
2026-05-05 01:21 28.56676 77.08695 785 ft 54 kts 104°
2026-05-05 01:22 28.56501 77.09458 785 ft 140 kts 105°
2026-05-05 01:22 28.56204 77.10761 999 ft 189 kts 105°
2026-05-05 01:22 28.55882 77.12120 2100 ft 179 kts 105°
2026-05-05 01:22 28.55579 77.13435 3190 ft 173 kts 105°
2026-05-05 01:23 28.55280 77.14748 3962 ft 182 kts 105°
2026-05-05 01:23 28.54801 77.16222 4222 ft 221 kts 127°
2026-05-05 01:23 28.53416 77.17262 4479 ft 265 kts 168°
2026-05-05 01:23 28.51564 77.17077 5439 ft 281 kts 204°
2026-05-05 01:24 28.49891 77.15964 6681 ft 285 kts 217°
2026-05-05 01:24 28.48326 77.14632 7903 ft 292 kts 219°
2026-05-05 01:24 28.46723 77.13238 9203 ft 294 kts 219°
2026-05-05 01:24 28.45084 77.11843 10205 ft 309 kts 219°
2026-05-05 01:25 28.43257 77.10329 10642 ft 344 kts 217°
2026-05-05 01:25 28.41196 77.08678 11181 ft 374 kts 217°
2026-05-05 01:25 28.38995 77.06933 11694 ft 402 kts 217°
2026-05-05 01:25 28.36665 77.05093 12702 ft 414 kts 217°
2026-05-05 01:26 28.34308 77.03226 14061 ft 416 kts 217°
2026-05-05 01:26 28.31972 77.01368 15488 ft 415 kts 217°
2026-05-05 01:26 28.29613 76.99483 16706 ft 420 kts 218°
2026-05-05 01:26 28.27229 76.97579 17864 ft 425 kts 218°
2026-05-05 01:27 28.24802 76.95650 19013 ft 430 kts 218°
2026-05-05 01:27 28.22352 76.93701 20083 ft 436 kts 218°
2026-05-05 01:27 28.19857 76.91718 21148 ft 441 kts 218°
2026-05-05 01:27 28.17346 76.89716 22211 ft 446 kts 219°
2026-05-05 01:28 28.14815 76.87696 23216 ft 452 kts 219°
2026-05-05 01:28 28.12220 76.85624 24119 ft 461 kts 219°
2026-05-05 01:28 28.09592 76.83534 25001 ft 468 kts 219°
2026-05-05 01:28 28.06929 76.81416 25970 ft 473 kts 219°
2026-05-05 01:29 28.04212 76.79255 26887 ft 479 kts 219°
2026-05-05 01:29 28.01476 76.77071 27681 ft 488 kts 219°
2026-05-05 01:29 27.98724 76.74874 28680 ft 491 kts 219°
2026-05-05 01:29 27.95916 76.72638 29823 ft 490 kts 219°
2026-05-05 01:30 27.93157 76.70438 31166 ft 482 kts 219°
2026-05-05 01:30 27.90480 76.68304 32340 ft 476 kts 218°
2026-05-05 01:30 27.87778 76.66149 33486 ft 471 kts 219°
2026-05-05 01:30 27.85148 76.64054 34525 ft 467 kts 219°
2026-05-05 01:31 27.82519 76.61958 35622 ft 461 kts 219°
2026-05-05 01:31 27.79892 76.59895 36686 ft 456 kts 219°
2026-05-05 01:31 27.77318 76.57890 37353 ft 457 kts 220°
2026-05-05 01:31 27.74670 76.55824 37597 ft 460 kts 220°
2026-05-05 01:32 27.72082 76.53804 37773 ft 452 kts 220°
2026-05-05 01:32 27.69512 76.51790 37899 ft 450 kts 220°
2026-05-05 01:32 27.64381 76.47754 37874 ft 449 kts 220°
2026-05-05 01:33 27.59220 76.43716 37929 ft 453 kts 220°
2026-05-05 01:33 27.54049 76.39670 37908 ft 451 kts 220°
2026-05-05 01:34 27.48902 76.35628 37921 ft 452 kts 221°
2026-05-05 01:34 27.43694 76.31542 37944 ft 455 kts 220°
2026-05-05 01:35 27.38506 76.27480 37925 ft 454 kts 220°
2026-05-05 01:35 27.33355 76.23432 37927 ft 454 kts 220°
2026-05-05 01:36 27.28184 76.19374 37925 ft 454 kts 220°
2026-05-05 01:36 27.23013 76.15321 37917 ft 454 kts 221°
2026-05-05 01:37 27.17843 76.11255 37915 ft 453 kts 220°
2026-05-05 01:37 27.12670 76.07208 37909 ft 455 kts 220°
2026-05-05 01:38 27.07432 76.03169 37906 ft 454 kts 220°
2026-05-05 01:38 27.02237 75.99130 37915 ft 457 kts 220°
2026-05-05 01:39 26.97045 75.95101 37892 ft 454 kts 220°
2026-05-05 01:39 26.91801 75.91037 37917 ft 458 kts 221°
2026-05-05 01:40 26.86588 75.86994 37889 ft 458 kts 220°
2026-05-05 01:40 26.81035 75.83349 37888 ft 467 kts 211°
2026-05-05 01:41 26.74989 75.80622 37926 ft 471 kts 207°
2026-05-05 01:41 26.68871 75.78057 37877 ft 471 kts 207°
2026-05-05 01:42 26.62723 75.75446 37896 ft 474 kts 207°
2026-05-05 01:42 26.56547 75.72828 37872 ft 471 kts 207°
2026-05-05 01:43 26.50421 75.70235 37871 ft 472 kts 208°
2026-05-05 01:43 26.44281 75.67642 37883 ft 474 kts 207°
2026-05-05 01:44 26.38106 75.65046 37860 ft 473 kts 207°
2026-05-05 01:44 26.31968 75.62454 37864 ft 475 kts 207°
2026-05-05 01:45 26.25759 75.59835 37859 ft 477 kts 207°
2026-05-05 01:45 26.19574 75.57231 37848 ft 475 kts 207°
2026-05-05 01:46 26.13399 75.54624 37857 ft 476 kts 207°
2026-05-05 01:46 26.07219 75.52017 37852 ft 478 kts 207°
2026-05-05 01:47 26.01023 75.49408 37836 ft 474 kts 207°
2026-05-05 01:47 25.94833 75.46807 37852 ft 475 kts 207°
2026-05-05 01:48 25.88622 75.44219 37848 ft 477 kts 207°
2026-05-05 01:48 25.82456 75.41591 37824 ft 475 kts 208°
2026-05-05 01:49 25.76285 75.39001 37835 ft 474 kts 207°
2026-05-05 01:49 25.70045 75.36453 37834 ft 477 kts 207°
2026-05-05 01:50 25.63833 75.33927 37834 ft 473 kts 207°
2026-05-05 01:50 25.57630 75.31380 37862 ft 478 kts 206°
2026-05-05 01:51 25.51448 75.28863 37806 ft 474 kts 206°
2026-05-05 01:51 25.45227 75.26327 37827 ft 477 kts 207°
2026-05-05 01:52 25.39005 75.23781 37813 ft 476 kts 206°
2026-05-05 01:52 25.32812 75.21258 37816 ft 476 kts 207°
2026-05-05 01:53 25.26599 75.18718 37815 ft 474 kts 206°
2026-05-05 01:53 25.20425 75.16196 37815 ft 474 kts 207°
2026-05-05 01:54 25.14245 75.13673 37807 ft 475 kts 206°
2026-05-05 01:54 25.08026 75.11135 37800 ft 475 kts 207°
2026-05-05 01:55 25.01810 75.08621 37802 ft 475 kts 206°
2026-05-05 01:55 24.95620 75.06134 37796 ft 474 kts 206°
2026-05-05 01:56 24.89403 75.03616 37805 ft 476 kts 207°
2026-05-05 01:56 24.83213 75.01120 37796 ft 475 kts 206°
2026-05-05 01:57 24.77006 74.98615 37807 ft 474 kts 206°
2026-05-05 01:57 24.70827 74.96120 37810 ft 475 kts 206°
2026-05-05 01:58 24.64623 74.93614 37805 ft 476 kts 206°
2026-05-05 01:58 24.58406 74.91106 37813 ft 476 kts 206°
2026-05-05 01:59 24.52217 74.88556 37795 ft 473 kts 207°
2026-05-05 01:59 24.46015 74.86011 37811 ft 476 kts 206°
2026-05-05 02:00 24.39804 74.83540 37795 ft 477 kts 206°
2026-05-05 02:00 24.33530 74.81046 37805 ft 477 kts 206°
2026-05-05 02:01 24.27307 74.78561 37798 ft 475 kts 206°
2026-05-05 02:01 24.21106 74.76093 37812 ft 476 kts 206°
2026-05-05 02:02 24.14837 74.73598 37807 ft 477 kts 206°
2026-05-05 02:02 24.08614 74.71119 37803 ft 476 kts 206°
2026-05-05 02:03 24.02416 74.68648 37795 ft 476 kts 206°
2026-05-05 02:03 23.96179 74.66080 37802 ft 479 kts 207°
2026-05-05 02:04 23.89945 74.63545 37776 ft 477 kts 207°
2026-05-05 02:04 23.83724 74.61083 37782 ft 478 kts 206°
2026-05-05 02:05 23.77445 74.58594 37773 ft 479 kts 206°
2026-05-05 02:05 23.71197 74.56107 37777 ft 478 kts 206°
2026-05-05 02:06 23.64922 74.53620 37769 ft 479 kts 206°
2026-05-05 02:06 23.58693 74.51148 37773 ft 479 kts 206°
2026-05-05 02:07 23.52402 74.48648 37765 ft 478 kts 206°
2026-05-05 02:07 23.46172 74.46176 37779 ft 479 kts 206°
2026-05-05 02:08 23.39911 74.43692 37774 ft 479 kts 206°
2026-05-05 02:08 23.33659 74.41209 37772 ft 478 kts 206°
2026-05-05 02:09 23.27401 74.38721 37774 ft 480 kts 206°
2026-05-05 02:09 23.21118 74.36231 37775 ft 478 kts 206°
2026-05-05 02:10 23.14846 74.33760 37787 ft 480 kts 206°
2026-05-05 02:10 23.08581 74.31221 37776 ft 480 kts 206°
2026-05-05 02:11 23.02344 74.28736 37773 ft 478 kts 205°
2026-05-05 02:11 22.96071 74.26292 37778 ft 479 kts 205°
2026-05-05 02:12 22.86658 74.22598 37772 ft 479 kts 205°
2026-05-05 02:13 22.80373 74.20139 37763 ft 479 kts 205°
2026-05-05 02:13 22.74083 74.17677 37769 ft 480 kts 205°
2026-05-05 02:14 22.67809 74.15216 37766 ft 479 kts 205°
2026-05-05 02:14 22.61547 74.12759 37769 ft 479 kts 206°
2026-05-05 02:15 22.55292 74.10246 37768 ft 478 kts 205°
2026-05-05 02:15 22.49023 74.07783 37770 ft 479 kts 205°
2026-05-05 02:16 22.42772 74.05366 37772 ft 479 kts 205°
2026-05-05 02:16 22.36493 74.02914 37762 ft 479 kts 205°
2026-05-05 02:17 22.30206 74.00464 37758 ft 479 kts 205°
2026-05-05 02:17 22.23919 73.98024 37759 ft 479 kts 205°
2026-05-05 02:18 22.17637 73.95574 37765 ft 479 kts 205°
2026-05-05 02:18 22.11359 73.93132 37756 ft 479 kts 205°
2026-05-05 02:19 22.05087 73.90691 37759 ft 479 kts 205°
2026-05-05 02:19 21.98835 73.88254 37764 ft 479 kts 205°
2026-05-05 02:20 21.92572 73.85817 37767 ft 478 kts 205°
2026-05-05 02:20 21.86300 73.83376 37777 ft 479 kts 205°
2026-05-05 02:21 21.80003 73.80930 37785 ft 479 kts 204°
2026-05-05 02:21 21.73724 73.78526 37793 ft 479 kts 204°
2026-05-05 02:22 21.67444 73.76104 37804 ft 480 kts 204°
2026-05-05 02:22 21.61179 73.73690 37781 ft 479 kts 205°
2026-05-05 02:23 21.54867 73.71262 37794 ft 479 kts 204°
2026-05-05 02:23 21.48576 73.68840 37773 ft 480 kts 204°
2026-05-05 02:24 21.42307 73.66425 37784 ft 481 kts 204°
2026-05-05 02:24 21.35975 73.63990 37766 ft 479 kts 204°
2026-05-05 02:25 21.29702 73.61568 37294 ft 487 kts 204°
2026-05-05 02:25 21.26508 73.60339 36750 ft 487 kts 204°
2026-05-05 02:25 21.23341 73.59125 36295 ft 484 kts 204°
2026-05-05 02:25 21.20175 73.57907 35859 ft 482 kts 204°
2026-05-05 02:26 21.16984 73.56676 35375 ft 481 kts 204°
2026-05-05 02:26 21.13860 73.55516 34929 ft 481 kts 202°
2026-05-05 02:26 21.10620 73.54414 34550 ft 491 kts 201°
2026-05-05 02:26 21.07304 73.53316 34176 ft 501 kts 201°
2026-05-05 02:27 21.03967 73.52206 33608 ft 506 kts 201°
2026-05-05 02:27 21.00625 73.51084 33004 ft 507 kts 201°
2026-05-05 02:27 20.97272 73.49955 32399 ft 507 kts 201°
2026-05-05 02:27 20.93868 73.48814 31830 ft 508 kts 201°
2026-05-05 02:28 20.90501 73.47692 31265 ft 509 kts 201°
2026-05-05 02:28 20.87130 73.46571 30720 ft 512 kts 201°
2026-05-05 02:28 20.83678 73.45424 30118 ft 519 kts 201°
2026-05-05 02:28 20.80195 73.44264 29465 ft 524 kts 201°
2026-05-05 02:29 20.76740 73.43112 28832 ft 528 kts 201°
2026-05-05 02:29 20.73228 73.41943 28071 ft 533 kts 201°
2026-05-05 02:29 20.69663 73.40751 27235 ft 539 kts 201°
2026-05-05 02:29 20.66058 73.39554 26830 ft 535 kts 201°
2026-05-05 02:30 20.62551 73.38390 25988 ft 529 kts 200°
2026-05-05 02:30 20.59100 73.37241 25227 ft 517 kts 200°
2026-05-05 02:30 20.55688 73.36101 24372 ft 508 kts 200°
2026-05-05 02:30 20.52324 73.34975 23384 ft 502 kts 200°
2026-05-05 02:31 20.49063 73.33888 22545 ft 494 kts 199°
2026-05-05 02:31 20.45780 73.32797 21599 ft 486 kts 199°
2026-05-05 02:31 20.42604 73.31743 20610 ft 480 kts 199°
2026-05-05 02:31 20.39430 73.30686 19654 ft 473 kts 199°
2026-05-05 02:32 20.36319 73.29648 18745 ft 465 kts 199°
2026-05-05 02:32 20.33268 73.28631 17675 ft 459 kts 198°
2026-05-05 02:32 20.30260 73.27635 16678 ft 450 kts 198°
2026-05-05 02:32 20.27276 73.26653 15630 ft 439 kts 198°
2026-05-05 02:33 20.24391 73.25700 15214 ft 437 kts 198°
2026-05-05 02:33 20.21449 73.24757 14754 ft 448 kts 197°
2026-05-05 02:33 20.18453 73.23827 14192 ft 441 kts 197°
2026-05-05 02:33 20.15534 73.22915 13683 ft 430 kts 198°
2026-05-05 02:34 20.12746 73.22027 13212 ft 416 kts 198°
2026-05-05 02:34 20.09942 73.21127 12771 ft 423 kts 198°
2026-05-05 02:34 20.07100 73.20222 12323 ft 419 kts 197°
2026-05-05 02:34 20.04347 73.19518 11935 ft 398 kts 191°
2026-05-05 02:35 20.01665 73.19160 11432 ft 379 kts 185°
2026-05-05 02:35 19.99084 73.18960 10987 ft 356 kts 184°
2026-05-05 02:35 19.96691 73.18792 10591 ft 334 kts 184°
2026-05-05 02:35 19.94428 73.18615 10242 ft 318 kts 185°
2026-05-05 02:36 19.92264 73.18433 9915 ft 305 kts 185°
2026-05-05 02:36 19.90199 73.18253 9610 ft 294 kts 185°
2026-05-05 02:36 19.88178 73.18077 9310 ft 286 kts 185°
2026-05-05 02:36 19.86163 73.17902 9045 ft 291 kts 185°
2026-05-05 02:37 19.84149 73.17728 8752 ft 295 kts 185°
2026-05-05 02:37 19.82086 73.17551 8417 ft 292 kts 185°
2026-05-05 02:37 19.80065 73.17380 8093 ft 292 kts 185°
2026-05-05 02:37 19.78041 73.17215 7790 ft 291 kts 185°
2026-05-05 02:38 19.76025 73.17055 7482 ft 288 kts 185°
2026-05-05 02:38 19.74017 73.16927 7179 ft 286 kts 182°
2026-05-05 02:38 19.72031 73.16894 6875 ft 284 kts 181°
2026-05-05 02:38 19.70078 73.16919 6567 ft 279 kts 180°
2026-05-05 02:39 19.68133 73.16972 6285 ft 273 kts 180°
2026-05-05 02:39 19.66264 73.17039 6028 ft 268 kts 179°
2026-05-05 02:39 19.64412 73.17112 5780 ft 263 kts 179°
2026-05-05 02:39 19.62589 73.17184 5540 ft 259 kts 179°
2026-05-05 02:40 19.60785 73.17256 5296 ft 255 kts 180°
2026-05-05 02:40 19.59027 73.17326 5064 ft 253 kts 180°
2026-05-05 02:40 19.57277 73.17392 4833 ft 249 kts 180°
2026-05-05 02:40 19.55534 73.17459 4610 ft 246 kts 180°
2026-05-05 02:41 19.53851 73.17521 4403 ft 243 kts 180°
2026-05-05 02:41 19.52161 73.17583 4206 ft 239 kts 180°
2026-05-05 02:41 19.50530 73.17643 4147 ft 229 kts 180°
2026-05-05 02:41 19.48975 73.17702 4129 ft 218 kts 180°
2026-05-05 02:42 19.47446 73.17761 4135 ft 217 kts 180°
2026-05-05 02:42 19.45919 73.17822 4158 ft 220 kts 180°
2026-05-05 02:42 19.44404 73.17883 4144 ft 218 kts 180°
2026-05-05 02:42 19.42877 73.17944 4113 ft 218 kts 180°
2026-05-05 02:43 19.41348 73.18005 4106 ft 219 kts 180°
2026-05-05 02:43 19.39820 73.18066 4100 ft 219 kts 180°
2026-05-05 02:43 19.38287 73.18131 4080 ft 218 kts 180°
2026-05-05 02:43 19.36773 73.18192 4062 ft 218 kts 180°
2026-05-05 02:44 19.35247 73.18254 4056 ft 219 kts 180°
2026-05-05 02:44 19.33719 73.18315 4040 ft 218 kts 180°
2026-05-05 02:44 19.32198 73.18373 4017 ft 218 kts 180°
2026-05-05 02:44 19.30688 73.18433 4007 ft 219 kts 180°
2026-05-05 02:45 19.29159 73.18494 3980 ft 213 kts 180°
2026-05-05 02:45 19.27725 73.18552 3932 ft 203 kts 180°
2026-05-05 02:45 19.26308 73.18608 3879 ft 199 kts 180°
2026-05-05 02:45 19.24948 73.18663 3889 ft 192 kts 180°
2026-05-05 02:46 19.23596 73.18716 3948 ft 193 kts 180°
2026-05-05 02:46 19.22246 73.18771 3734 ft 190 kts 180°
2026-05-05 02:46 19.20963 73.18828 3717 ft 184 kts 180°
2026-05-05 02:46 19.19665 73.18887 3775 ft 186 kts 180°
2026-05-05 02:47 19.18358 73.18948 3751 ft 186 kts 180°
2026-05-05 02:47 19.17140 73.18673 3704 ft 177 kts 213°
2026-05-05 02:47 19.16175 73.17829 3798 ft 182 kts 229°
2026-05-05 02:47 19.15382 73.16775 3749 ft 180 kts 236°
2026-05-05 02:48 19.14701 73.15675 3712 ft 177 kts 239°
2026-05-05 02:48 19.14067 73.14555 3735 ft 179 kts 240°
2026-05-05 02:48 19.13430 73.13387 3644 ft 184 kts 241°
2026-05-05 02:48 19.12810 73.12239 3535 ft 178 kts 241°
2026-05-05 02:49 19.12197 73.11103 3404 ft 180 kts 240°
2026-05-05 02:49 19.11570 73.09945 3232 ft 179 kts 240°
2026-05-05 02:49 19.10961 73.08820 3058 ft 174 kts 240°
2026-05-05 02:49 19.10369 73.07727 2897 ft 167 kts 240°
2026-05-05 02:50 19.09800 73.06676 2912 ft 166 kts 240°
2026-05-05 02:50 19.09219 73.05607 2956 ft 168 kts 240°
2026-05-05 02:50 19.08636 73.04539 2944 ft 166 kts 240°
2026-05-05 02:50 19.08053 73.03477 2948 ft 168 kts 240°
2026-05-05 02:51 19.07527 73.02329 2628 ft 177 kts 243°
2026-05-05 02:51 19.06961 73.01186 2222 ft 175 kts 241°
2026-05-05 02:51 19.06732 72.99966 1896 ft 164 kts 275°
2026-05-05 02:51 19.07002 72.98783 1879 ft 170 kts 288°
2026-05-05 02:52 19.07450 72.97661 1698 ft 161 kts 294°
2026-05-05 02:52 19.07954 72.96626 1542 ft 155 kts 296°
2026-05-05 02:52 19.08444 72.95598 1410 ft 158 kts 290°
2026-05-05 02:52 19.08744 72.94479 1241 ft 157 kts 277°
2026-05-05 02:53 19.08851 72.93336 1053 ft 154 kts 270°
2026-05-05 02:53 19.08872 72.92217 852 ft 156 kts 268°
2026-05-05 02:53 19.08907 72.91065 658 ft 157 kts 272°
2026-05-05 02:53 19.08933 72.89912 473 ft 155 kts 266°
2026-05-05 02:54 19.08903 72.88790 264 ft 153 kts 268°
2026-05-05 02:54 19.08891 72.87653 77 ft 153 kts 266°
2026-05-05 02:54 19.08866 72.86678 37 ft 86 kts 268°
2026-05-05 02:54 19.08863 72.86362 37 ft 32 kts 269°
2026-05-05 02:55 19.08861 72.86108 34 ft 36 kts 268°
2026-05-05 02:55 19.08940 72.85858 32 ft 26 kts 302°
2026-05-05 02:55 19.09032 72.85869 34 ft 14 kts 90°
2026-05-05 02:55 19.09031 72.85986 35 ft 17 kts 90°
2026-05-05 02:56 19.09032 72.86136 35 ft 22 kts 90°
2026-05-05 02:56 19.09047 72.86313 36 ft 20 kts 70°
2026-05-05 02:56 19.09129 72.86423 36 ft 21 kts 47°
2026-05-05 02:56 19.09234 72.86547 37 ft 21 kts 49°
2026-05-05 02:57 19.09345 72.86679 38 ft 25 kts 49°
2026-05-05 02:57 19.09441 72.86805 40 ft 9 kts 103°
2026-05-05 02:57 19.09378 72.86871 39 ft 15 kts 138°
2026-05-05 02:57 19.09318 72.86876 38 ft 8 kts 225°
2026-05-05 02:58 19.09283 72.86841 37 ft 0 kts 223°